• In Hungary
  • List of Countries
  • For 7 days
  • Water Temperature
  • Satellite Maps
  • Weather Map
  • News
  • Weather Widgets
  • user-avatar
    Login

    Hourly Weather Igls

    Today, 19 October, Thursday

    Time Temperature Precipitation Wind Pressure Humidity
    00:00 +9°C° 0 mm 2 mps 684 mmHg 59%
    01:00 +8°C° 0 mm 2 mps 684 mmHg 58%
    02:00 +8°C° 0 mm 2 mps 684 mmHg 57%
    03:00 +8°C° 0 mm 2 mps 684 mmHg 56%
    04:00 +8°C° 0 mm 2 mps 684 mmHg 55%
    05:00 +8°C° 0 mm 2 mps 684 mmHg 54%
    06:00 +8°C° 0 mm 2 mps 684 mmHg 52%
    07:00 +9°C° 0 mm 1 mps 684 mmHg 51%
    08:00 +12°C° 0 mm 1 mps 684 mmHg 45%
    09:00 +15°C° 0 mm 1 mps 685 mmHg 39%
    10:00 +19°C° 0 mm 1 mps 685 mmHg 33%
    11:00 +19°C° 0 mm 1 mps 685 mmHg 32%
    12:00 +20°C° 0 mm 1 mps 685 mmHg 30%
    13:00 +21°C° 0 mm 1 mps 685 mmHg 29%
    14:00 +20°C° 0 mm 1 mps 685 mmHg 35%
    15:00 +19°C° 0 mm 1 mps 684 mmHg 41%
    16:00 +19°C° 0 mm 1 mps 684 mmHg 47%
    17:00 +15°C° 0 mm 1 mps 684 mmHg 52%
    18:00 +13°C° 0 mm 1 mps 684 mmHg 57%
    19:00 +10°C° 0 mm 2 mps 683 mmHg 62%
    20:00 +10°C° 0 mm 2 mps 684 mmHg 62%
    21:00 +9°C° 0 mm 2 mps 684 mmHg 62%
    22:00 +9°C° 0 mm 2 mps 684 mmHg 62%
    23:00 +9°C° 0 mm 2 mps 684 mmHg 65%

    Tomorrow, 20 October, Friday

    Time Temperature Precipitation Wind Pressure Humidity
    00:00 +9°C° 0 mm 2 mps 684 mmHg 68%
    01:00 +8°C° 0 mm 2 mps 684 mmHg 70%
    02:00 +8°C° 0 mm 2 mps 684 mmHg 72%
    03:00 +8°C° 0 mm 2 mps 684 mmHg 73%
    04:00 +8°C° 0 mm 2 mps 684 mmHg 75%
    05:00 +9°C° 0 mm 1 mps 684 mmHg 75%
    06:00 +9°C° 0 mm 1 mps 685 mmHg 76%
    07:00 +9°C° 0 mm 1 mps 685 mmHg 76%
    08:00 +12°C° 0 mm 1 mps 685 mmHg 67%
    09:00 +15°C° 0 mm 1 mps 686 mmHg 58%
    10:00 +16°C° 0 mm 0 mps 687 mmHg 49%
    11:00 +19°C° 0 mm 1 mps 687 mmHg 48%
    12:00 +20°C° 0 mm 1 mps 687 mmHg 46%
    13:00 +20°C° 0 mm 1 mps 687 mmHg 45%
    14:00 +19°C° 0 mm 1 mps 687 mmHg 50%
    15:00 +19°C° 0 mm 1 mps 687 mmHg 55%
    16:00 +18°C° 0 mm 1 mps 687 mmHg 61%
    17:00 +15°C° 0 mm 1 mps 687 mmHg 69%
    18:00 +12°C° 0 mm 1 mps 686 mmHg 78%
    19:00 +10°C° 0 mm 1 mps 686 mmHg 86%
    20:00 +10°C° 0 mm 1 mps 686 mmHg 85%
    21:00 +10°C° 0 mm 1 mps 687 mmHg 84%
    22:00 +10°C° 0 mm 1 mps 687 mmHg 83%
    23:00 +10°C° 0 mm 1 mps 687 mmHg 81%

    Day after tomorrow, 21 October, Saturday

    Time Temperature Precipitation Wind Pressure Humidity
    00:00 +10°C° 0 mm 1 mps 687 mmHg 79%
    01:00 +10°C° 0 mm 1 mps 687 mmHg 77%
    02:00 +10°C° 0 mm 1 mps 687 mmHg 76%
    03:00 +10°C° 0 mm 1 mps 686 mmHg 75%
    04:00 +10°C° 0 mm 1 mps 686 mmHg 74%
    05:00 +10°C° 0 mm 1 mps 686 mmHg 72%
    06:00 +10°C° 0 mm 1 mps 686 mmHg 71%
    07:00 +11°C° 0 mm 1 mps 687 mmHg 70%
    08:00 +13°C° 0 mm 1 mps 687 mmHg 63%
    09:00 +14°C° 0 mm 0 mps 688 mmHg 56%
    10:00 +17°C° 0 mm 0 mps 688 mmHg 49%
    11:00 +18°C° 0 mm 0 mps 688 mmHg 47%
    12:00 +20°C° 0 mm 1 mps 688 mmHg 45%
    13:00 +21°C° 0 mm 1 mps 687 mmHg 43%
    14:00 +20°C° 0 mm 1 mps 687 mmHg 49%
    15:00 +20°C° 0 mm 1 mps 687 mmHg 54%
    16:00 +19°C° 0 mm 1 mps 686 mmHg 60%
    17:00 +16°C° 0 mm 1 mps 686 mmHg 68%
    18:00 +13°C° 0 mm 1 mps 686 mmHg 77%
    19:00 +10°C° 0 mm 0 mps 686 mmHg 85%
    20:00 +10°C° 0 mm 0 mps 686 mmHg 87%
    21:00 +10°C° 0 mm 0 mps 686 mmHg 89%
    22:00 +9°C° 0 mm 0 mps 686 mmHg 91%
    23:00 +9°C° 0.4 mm 0 mps 686 mmHg 92%

    22 October, Sunday

    Time Temperature Precipitation Wind Pressure Humidity
    00:00 +10°C° 0.4 mm 1 mps 686 mmHg 94%
    01:00 +10°C° 0.4 mm 1 mps 686 mmHg 95%
    02:00 +10°C° 0.9 mm 1 mps 686 mmHg 95%
    03:00 +10°C° 0.9 mm 1 mps 686 mmHg 96%
    04:00 +10°C° 0.9 mm 1 mps 685 mmHg 97%
    05:00 +9°C° 1.3 mm 2 mps 685 mmHg 97%
    06:00 +8°C° 1.3 mm 2 mps 685 mmHg 97%
    07:00 +8°C° 1.3 mm 2 mps 685 mmHg 97%
    08:00 +8°C° 2.2 mm 2 mps 685 mmHg 96%
    09:00 +7°C° 2.2 mm 2 mps 685 mmHg 95%
    10:00 +7°C° 2.2 mm 2 mps 685 mmHg 95%
    11:00 +7°C° 1.7 mm 2 mps 685 mmHg 94%
    12:00 +7°C° 1.7 mm 3 mps 685 mmHg 94%
    13:00 +5°C° 1.7 mm 3 mps 685 mmHg 93%
    14:00 +5°C° 0.6 mm 3 mps 685 mmHg 92%
    15:00 +5°C° 0.6 mm 3 mps 685 mmHg 92%
    16:00 +5°C° 0.6 mm 3 mps 685 mmHg 91%
    17:00 +4°C° 0.1 mm 3 mps 685 mmHg 92%
    18:00 +3°C° 0.1 mm 3 mps 685 mmHg 93%
    19:00 +2°C° 0.1 mm 3 mps 685 mmHg 94%
    20:00 +3°C° 0.1 mm 2 mps 686 mmHg 94%
    21:00 +3°C° 0.1 mm 2 mps 686 mmHg 93%
    22:00 +2°C° 0.1 mm 2 mps 686 mmHg 93%
    23:00 +2°C° 0.3 mm 2 mps 686 mmHg 93%

    23 October, Monday

    Time Temperature Precipitation Wind Pressure Humidity
    00:00 +2°C° 0.3 mm 2 mps 686 mmHg 93%
    01:00 +2°C° 0.3 mm 2 mps 686 mmHg 93%
    02:00 +2°C° 0.4 mm 2 mps 686 mmHg 93%
    03:00 +2°C° 0.4 mm 2 mps 686 mmHg 93%
    04:00 +2°C° 0.4 mm 2 mps 686 mmHg 93%
    05:00 +3°C° 0.8 mm 2 mps 686 mmHg 93%
    06:00 +3°C° 0.8 mm 2 mps 687 mmHg 94%
    07:00 +3°C° 0.8 mm 2 mps 687 mmHg 94%
    08:00 +4°C° 0.9 mm 2 mps 687 mmHg 93%
    09:00 +4°C° 0.9 mm 2 mps 688 mmHg 92%
    10:00 +5°C° 0.9 mm 2 mps 688 mmHg 92%
    11:00 +4°C° 0.5 mm 3 mps 688 mmHg 91%
    12:00 +5°C° 0.5 mm 3 mps 688 mmHg 91%
    13:00 +5°C° 0.5 mm 3 mps 688 mmHg 91%
    14:00 +6°C° 0.1 mm 2 mps 688 mmHg 91%
    15:00 +6°C° 0.1 mm 2 mps 688 mmHg 91%
    16:00 +6°C° 0.1 mm 2 mps 689 mmHg 91%
    17:00 +5°C° 0.1 mm 2 mps 689 mmHg 92%
    18:00 +4°C° 0.1 mm 2 mps 689 mmHg 93%
    19:00 +3°C° 0.1 mm 2 mps 690 mmHg 94%
    20:00 +3°C° 0 mm 2 mps 690 mmHg 92%
    21:00 +3°C° 0 mm 2 mps 690 mmHg 91%
    22:00 +3°C° 0 mm 2 mps 690 mmHg 90%
    23:00 +3°C° 0 mm 2 mps 690 mmHg 90%

    24 October, Tuesday

    Time Temperature Precipitation Wind Pressure Humidity
    00:00 +3°C° 0 mm 2 mps 690 mmHg 89%
    01:00 +3°C° 0 mm 2 mps 690 mmHg 89%
    02:00 +3°C° 0 mm 2 mps 690 mmHg 88%
    03:00 +3°C° 0 mm 2 mps 690 mmHg 88%
    04:00 +3°C° 0 mm 2 mps 690 mmHg 87%
    05:00 +3°C° 0 mm 2 mps 690 mmHg 88%
    06:00 +3°C° 0 mm 2 mps 691 mmHg 88%
    07:00 +4°C° 0 mm 2 mps 691 mmHg 88%
    08:00 +7°C° 0 mm 1 mps 691 mmHg 88%
    09:00 +9°C° 0 mm 1 mps 691 mmHg 89%
    10:00 +11°C° 0 mm 1 mps 691 mmHg 90%
    11:00 +12°C° 0 mm 1 mps 691 mmHg 88%
    12:00 +13°C° 0 mm 1 mps 691 mmHg 87%
    13:00 +14°C° 0 mm 1 mps 691 mmHg 85%
    14:00 +13°C° 0 mm 1 mps 691 mmHg 87%
    15:00 +13°C° 0 mm 1 mps 691 mmHg 89%
    16:00 +12°C° 0 mm 1 mps 690 mmHg 91%
    17:00 +11°C° 0 mm 1 mps 690 mmHg 90%
    18:00 +10°C° 0 mm 1 mps 691 mmHg 89%
    19:00 +8°C° 0 mm 1 mps 691 mmHg 87%
    20:00 +8°C° 0 mm 1 mps 691 mmHg 85%
    21:00 +8°C° 0 mm 1 mps 691 mmHg 83%
    22:00 +8°C° 0 mm 1 mps 691 mmHg 82%
    23:00 +9°C° 0 mm 1 mps 691 mmHg 81%
    Show more